Regional Weather Roundup
Issued by NWS

Home | Current Version | Previous Version | Graphics & Text | Print | Product List | Glossary On
Versions: 1 2 3 4 5 6 7 8 9 10 11 12 13 14 15 16 17 18 19 20 21 22 23 24 25 26 27
000
ASUS45 KSLC 260110
RWRUT

UTAH REGIONAL WEATHER ROUNDUP
NATIONAL WEATHER SERVICE SALT LAKE CITY UT
700 PM MDT WED APR 25 2018

UTZ001>011-023>025-260200-

NORTHERN UTAH

CITY           SKY/WX    TMP DP  RH WIND       PRES   REMARKS
BRIGHAM CITY   MOSUNNY   67  21  17 CALM      30.10F
HILL AFB       PTSUNNY   64  26  24 SW6       30.12F
LOGAN          MOSUNNY   62  36  37 W5        30.09F
OGDEN          PTSUNNY   66  27  23 CALM      30.10F
SALT LAKE CITY PTSUNNY   69  30  23 N8        30.09F
TOOELE VALLEY  PTSUNNY   63  36  36 CALM      30.11F
WENDOVER       MOSUNNY   70  22  16 SE6       30.10F
HEBER CITY       N/A     68  21  17 SW10      30.12S
WEST JORDAN    PTSUNNY   65  34  31 NW8       30.12F

$$

UTZ011>015-024>027-260200-

CENTRAL/NORTHEAST UTAH

CITY           SKY/WX    TMP DP  RH WIND       PRES   REMARKS
PROVO AIRPORT  PTSUNNY   70  34  26 W8        30.10F
MOAB/CANYONLAN PTSUNNY   71   2   6 W8        30.06F
DELTA          MOSUNNY   72  19  14 CALM      30.11F
PRICE          MOSUNNY   69  12  11 SE3       30.12F
RICHFIELD      SUNNY     72  27  18 CALM      30.12F
ROOSEVELT      SUNNY     68  18  14 CALM      30.09F
VERNAL         SUNNY     64  16  15 CALM      30.09F

$$

UTZ013>016-019>022-027-260200-

SOUTHERN UTAH

CITY           SKY/WX    TMP DP  RH WIND       PRES   REMARKS
BRYCE CANYON   SUNNY     65  19  17 NW15      30.24S
CEDAR CITY     SUNNY     72  20  14 E6        30.11F
MILFORD        SUNNY     76  25  15 NW3       30.08F
ST GEORGE      MOCLDY    86  23  10 SW12      29.96F
HANKSVILLE     PTSUNNY   72  14  11 SW3       30.09F
KANAB          SUNNY     77  19  11 SW8       30.11S
BLANDING         N/A     70   0   6 NW12      30.20R

$$

REGIONAL REPORTS     COLORADO/ARIZONA

CITY           SKY/WX    TMP DP  RH WIND       PRES   REMARKS
CRAIG, CO      MOSUNNY   62  22  21 W14       30.11F
GRAND JUNCTION SUNNY     68   9  10 NW9       30.07F
RIFLE, CO      SUNNY     68   3   7 W16       30.07F
MONTROSE, CO   SUNNY     66   4   8 NW14      30.13R
CORTEZ, CO     SUNNY     69  -9   4 W8        30.13F
COLORADO CITY    N/A     77  21  12 W6        30.12S
PAGE, AZ       SUNNY     78  18  10 NE8       30.04F
GRAND CANYON   SUNNY     71  10   9 NW9       30.20S
KINGMAN, AZ    SUNNY     87  23   9 SW13      29.99S
FLAGSTAFF, AZ  SUNNY     69  19  15 E8        30.20S

$$

REGIONAL REPORTS    NEVADA/IDAHO/WYOMING

CITY           SKY/WX    TMP DP  RH WIND       PRES   REMARKS
LAS VEGAS, NV  PTSUNNY   92  21   7 VRB3      29.90F
ELY, NY        MOSUNNY   71  19  14 N12       30.15F
ELKO, NV       MOSUNNY   73  23  15 W14       30.13F
POCATELLO, ID  PTSUNNY   65  30  27 W12       30.10R
BURLEY, ID     SUNNY     68  21  16 W12G23    30.08F
FORT BRIDGER,    N/A     60   8  12 W25G32    30.19R
EVANSTON, WY   PTSUNNY   55  20  25 W18       30.19S
ROCK SPRINGS,  SUNNY     63   6  10 W22G35    30.08F
KEMMERER, WY   MOSUNNY   54  14  20 W22       30.18S

$$




USA.gov is the U.S. government's official web portal to all federal, state and local government web resources and services.